Theta_e
296 296 296 296 296 296 296 296 296 296 296 297 298 300 301 302 303 304 304 303 303 304 305 304 304 305 305 305 305 305 306 305 305 306 307 307 307 307 307 307 308 308 308 309 309 310 312 313 314 315 313 311 308 306 306 306 306 309 308 308 314 318 316 315 318 320 319 317 314 313 314 313 314 315 314 315 318 319 327 341 337 318 314 321 315 316 334
295 295 295 296 296 296 296 296 296 295 296 297 298 300 302 302 302 304 305 304 304 305 305 304 305 305 305 305 305 305 305 306 306 307 307 308 308 308 307 307 307 307 307 309 309 310 312 313 313 314 315 314 310 307 306 306 306 308 310 312 315 318 320 320 320 320 318 317 316 314 314 314 318 319 313 313 318 319 326 332 323 315 321 323 317 325 342
295 295 295 295 295 295 295 296 296 295 296 297 298 300 302 302 303 304 304 304 304 306 306 304 305 305 305 305 305 306 306 306 306 307 307 308 308 309 308 307 308 308 308 309 309 310 312 313 314 314 314 315 312 308 306 306 307 309 314 318 316 319 327 331 329 323 320 322 325 326 323 315 315 317 313 313 314 313 321 322 314 318 325 322 323 336 343
294 294 294 294 295 295 295 295 295 295 296 298 298 300 302 303 303 302 302 303 304 305 305 305 306 305 304 305 305 307 308 307 307 308 308 308 309 310 310 309 309 310 310 311 311 311 312 313 315 316 315 316 314 311 309 307 306 311 318 320 318 321 327 333 333 328 328 330 328 326 323 315 314 316 313 313 312 314 321 321 319 325 325 322 333 340 336
294 294 294 294 295 295 295 295 295 295 296 298 299 301 302 302 302 302 302 303 303 303 303 304 304 303 304 306 306 307 308 308 308 309 309 309 309 310 311 310 310 311 312 313 313 313 314 315 316 316 316 316 316 315 312 307 308 316 318 318 319 319 318 323 327 327 328 327 320 316 315 316 318 317 314 316 316 317 317 318 326 327 319 324 338 339 331
294 294 295 295 295 295 295 296 295 295 296 298 299 301 301 301 302 302 302 302 303 302 302 302 303 303 305 307 307 308 308 309 310 309 309 309 310 312 313 311 311 312 313 315 315 315 316 317 317 317 317 316 317 319 312 305 312 317 315 318 326 325 321 321 321 322 326 325 321 320 317 317 321 320 318 320 320 320 319 323 335 327 316 329 341 336 331
294 294 294 295 295 294 295 296 296 296 296 297 298 299 300 300 300 301 301 301 301 301 301 302 303 304 306 307 308 308 308 309 309 309 310 311 310 312 313 313 312 313 314 315 316 316 316 317 317 317 317 317 318 320 316 311 317 316 312 317 324 325 323 321 321 323 327 326 326 325 320 317 318 320 322 322 322 327 328 328 335 330 325 337 340 334 337
294 294 294 295 294 294 295 296 296 296 296 296 298 299 299 299 299 300 300 300 300 301 302 303 303 304 306 307 307 307 308 309 309 309 310 311 312 312 313 313 312 312 313 314 315 315 316 317 318 317 318 318 318 320 319 318 322 319 313 316 322 324 321 322 330 332 327 327 330 331 327 320 316 322 332 332 324 325 327 326 326 325 328 338 339 337 343
294 293 294 295 294 294 295 295 296 296 296 297 297 297 298 298 299 299 300 300 301 302 302 302 303 305 306 306 306 306 308 308 309 310 310 311 313 313 312 313 311 311 312 313 314 315 315 316 317 316 318 318 318 319 318 319 323 321 317 318 324 328 324 326 338 337 327 327 331 331 332 327 325 331 336 335 326 320 320 323 323 321 329 340 340 339 345
293 294 294 294 294 294 295 295 296 296 296 297 297 297 297 298 298 299 300 301 301 302 301 302 303 306 306 305 305 306 307 308 309 311 311 310 312 312 312 312 312 312 313 313 314 314 314 316 316 315 317 316 316 317 316 317 320 319 320 322 323 330 331 327 333 332 323 327 333 335 334 325 323 330 333 329 328 324 323 328 328 325 330 338 339 339 343
293 293 294 294 294 294 294 295 296 296 296 297 297 297 297 298 298 299 299 301 301 301 301 302 303 304 304 303 305 306 307 308 310 312 311 309 310 311 312 313 313 313 314 314 314 314 315 316 315 315 316 315 316 317 315 317 319 317 322 325 321 329 332 324 330 334 325 328 337 335 329 322 323 333 335 329 327 326 327 330 330 329 330 333 338 343 342
293 293 294 294 294 294 294 295 295 296 296 296 297 297 297 297 298 299 299 300 301 300 301 301 302 302 302 303 304 305 307 308 310 311 310 309 309 312 313 314 314 314 314 314 314 315 316 318 318 318 318 316 317 318 317 321 321 315 319 326 326 331 331 324 331 337 329 332 339 329 321 326 331 333 331 329 328 326 328 330 331 332 333 334 338 342 342
293 293 294 294 294 294 294 295 295 295 296 296 296 296 296 297 297 299 299 300 300 300 300 301 301 301 303 303 304 305 306 308 309 310 311 311 312 313 314 315 314 314 314 314 314 315 319 323 325 324 322 322 326 327 322 322 320 314 317 328 331 331 330 326 328 330 327 330 334 329 324 327 333 333 328 330 334 331 332 335 332 329 331 335 338 339 340
293 293 294 294 295 294 294 295 295 295 296 296 296 296 296 296 297 298 298 299 300 300 300 301 302 302 303 303 303 305 306 307 308 310 311 312 313 314 314 315 315 314 315 315 315 317 320 324 329 328 328 330 331 331 325 318 317 320 321 326 330 329 329 330 326 324 327 330 329 331 330 325 327 332 328 328 331 330 331 333 330 327 328 331 336 337 337
293 293 293 294 295 295 295 295 295 295 295 296 296 296 296 296 297 298 298 299 300 299 301 303 303 302 302 302 303 305 306 307 308 309 310 311 312 313 314 315 316 316 315 316 317 319 320 323 328 330 330 328 323 323 325 318 315 322 325 325 328 324 322 326 322 319 328 335 331 331 331 324 325 330 327 326 329 327 326 327 329 330 327 328 333 335 334
293 293 293 294 295 295 295 295 295 295 295 296 296 296 296 296 297 297 298 299 300 301 302 302 301 300 301 302 303 305 307 307 308 308 310 310 311 312 312 314 317 316 315 317 318 318 320 323 324 324 325 323 321 321 323 320 316 320 322 323 324 322 324 333 331 322 328 337 332 327 325 323 326 329 328 327 326 323 322 322 326 330 328 326 331 332 331
294 293 293 294 294 294 294 294 295 295 295 295 296 296 296 296 296 297 298 299 300 301 301 300 300 300 301 302 304 305 306 307 307 309 310 310 310 310 309 312 317 316 315 317 317 318 320 321 321 323 321 320 322 322 321 321 320 317 318 322 324 324 330 339 334 324 327 333 329 325 325 325 324 327 328 327 324 322 320 321 326 330 329 327 330 333 333
294 294 293 293 294 294 294 294 295 295 295 295 296 296 295 296 296 296 298 299 300 300 300 300 300 300 300 302 303 304 305 306 307 308 308 309 310 309 308 311 316 318 317 318 317 317 319 319 319 322 323 321 321 323 320 320 319 317 317 320 322 322 326 330 327 321 325 331 328 325 327 325 323 324 325 324 323 321 323 329 331 331 330 327 328 333 335
295 295 294 294 294 293 294 294 294 295 295 296 296 296 296 295 296 296 298 299 300 300 300 300 300 300 300 301 302 303 304 305 306 307 309 311 310 308 308 312 316 318 318 318 317 317 319 319 317 319 322 322 321 322 321 319 319 320 320 320 323 324 324 326 324 318 320 328 329 326 325 322 320 323 325 325 325 325 328 330 329 328 328 327 326 330 332
296 295 295 294 294 294 294 294 294 295 295 295 296 296 296 295 295 296 297 298 299 300 299 299 300 300 301 302 303 303 304 304 306 307 309 311 309 308 313 316 317 317 317 317 318 318 318 318 318 318 321 321 320 320 322 321 320 321 321 321 323 322 320 323 323 318 321 329 328 324 324 321 320 325 329 328 326 327 330 330 327 327 328 326 326 327 328
296 296 295 294 294 294 294 294 294 294 295 295 295 295 295 295 295 295 296 297 298 299 300 300 300 300 301 302 302 302 302 303 305 306 307 308 308 309 314 316 314 315 318 318 318 318 318 317 319 320 321 321 320 320 321 323 323 320 320 323 324 320 321 326 325 320 325 332 327 321 322 322 321 324 328 327 323 324 329 329 327 327 328 327 327 327 325
296 296 295 295 294 294 294 294 294 294 294 295 295 295 295 295 295 295 296 296 297 298 299 300 300 300 300 301 302 302 302 303 303 304 305 306 308 309 311 314 313 313 316 318 318 318 319 318 318 320 320 320 322 321 320 323 326 322 320 324 324 320 320 325 325 320 321 325 323 320 321 323 322 323 326 327 324 322 326 329 327 328 329 328 328 328 326
296 296 295 295 294 294 294 294 294 294 294 294 295 295 295 295 295 295 296 296 297 298 299 300 300 301 302 303 304 304 304 304 304 304 304 305 309 311 311 313 315 313 314 318 319 318 319 319 319 321 320 319 321 323 321 322 323 322 321 323 322 319 320 324 325 321 320 321 321 321 323 324 323 324 325 325 322 319 323 326 326 327 328 327 326 325 324
297 296 296 295 294 294 294 294 294 294 294 294 295 295 295 295 295 295 295 296 298 299 301 301 302 304 305 305 304 304 304 305 305 305 304 304 309 314 315 313 314 315 316 317 315 316 318 317 318 322 321 318 319 322 322 322 321 321 323 324 321 320 322 325 325 324 323 322 322 322 323 322 322 322 322 322 319 318 319 320 321 322 324 324 324 324 324
297 297 296 295 295 294 294 294 294 294 294 294 295 295 295 295 295 295 295 296 297 299 302 303 303 304 305 303 303 303 305 306 306 307 306 304 306 311 314 312 311 313 315 314 313 316 319 317 317 321 321 318 319 321 320 320 320 320 322 323 320 319 322 325 326 325 324 322 321 322 321 319 318 319 319 319 318 318 317 317 317 318 320 321 323 324 325
297 297 296 296 295 294 294 294 294 294 294 294 294 295 295 295 295 295 295 296 297 299 301 303 304 304 303 302 303 303 304 306 306 307 306 306 305 306 308 309 309 310 312 314 315 316 317 317 318 322 321 318 319 321 321 320 320 322 322 321 319 320 321 323 323 323 322 321 321 322 323 320 319 318 318 318 317 317 317 316 316 317 318 320 322 323 323
297 297 296 296 295 294 294 294 294 294 294 294 294 295 295 294 295 296 295 296 299 302 304 304 304 303 301 302 303 303 304 305 306 307 307 307 306 306 306 308 309 309 312 316 317 317 320 321 320 320 320 319 319 320 320 319 321 322 322 320 321 323 323 322 322 323 324 322 320 321 324 323 319 317 318 317 316 316 316 317 317 317 318 319 321 322 323
297 297 296 296 295 294 294 294 294 294 294 294 294 294 295 296 298 298 297 296 298 302 304 303 302 302 304 304 303 303 305 305 305 307 308 308 307 307 307 308 310 311 313 315 316 318 321 321 317 316 319 321 320 319 320 320 321 321 320 319 320 321 321 322 324 324 323 322 321 322 324 321 317 316 317 317 316 317 317 317 317 317 317 318 319 321 322
297 296 296 296 295 295 294 294 294 294 294 294 294 294 297 301 302 300 300 298 298 300 302 302 302 303 306 306 304 303 305 307 307 307 307 308 308 308 308 309 310 312 313 313 313 314 315 316 317 318 319 321 322 320 320 321 321 319 319 318 317 318 319 321 323 322 320 320 321 321 322 319 315 316 317 316 316 318 318 317 317 317 317 318 318 319 319
297 296 296 296 295 295 294 294 294 294 294 295 294 294 299 304 303 301 301 300 299 300 301 302 302 303 303 304 304 304 305 307 308 308 308 308 309 308 309 310 311 311 312 313 313 312 312 315 319 319 316 318 322 321 319 321 320 318 318 317 317 318 319 319 320 321 320 318 317 317 317 316 315 315 315 314 315 317 317 317 317 317 316 317 319 319 316
296 296 296 295 295 294 294 294 294 294 294 295 294 295 299 304 304 302 301 300 299 299 300 301 302 303 302 303 305 306 306 307 307 308 307 307 309 308 307 309 311 310 310 312 313 312 311 311 314 314 313 316 323 322 320 322 321 318 317 318 318 318 318 317 318 319 317 315 315 314 313 313 314 315 314 313 313 315 316 316 315 313 313 315 317 316 313
296 296 295 295 294 294 294 294 294 294 295 295 295 295 297 300 301 301 302 300 298 298 299 301 303 304 305 306 306 306 307 307 308 309 309 309 310 310 309 311 314 312 310 312 313 311 310 311 312 312 311 317 322 322 320 321 321 318 317 318 318 318 318 317 317 317 317 316 317 315 313 312 313 313 313 313 313 314 316 316 313 311 311 313 313 313 313
296 296 295 295 294 294 294 293 293 294 295 295 295 295 296 296 298 299 299 298 296 297 299 302 304 305 306 308 309 309 309 309 310 311 311 312 312 312 312 315 314 310 309 311 313 312 312 315 316 314 313 318 322 321 319 319 319 319 319 318 317 317 317 316 316 318 318 318 319 318 316 313 311 310 311 313 313 312 313 313 312 311 313 314 314 314 315
296 295 294 294 294 293 294 294 294 295 296 296 296 297 298 299 301 301 299 297 297 299 301 303 306 307 306 307 312 315 310 308 310 311 313 314 312 309 312 314 313 312 310 310 312 313 313 316 320 318 317 319 321 319 318 317 316 317 318 317 317 318 318 316 316 317 317 315 314 315 314 312 311 311 312 314 313 311 310 311 312 313 314 314 313 314 315
295 294 294 294 294 294 295 296 296 296 296 296 297 300 303 304 304 303 301 300 301 303 305 304 305 307 307 310 316 318 309 307 310 312 316 317 311 309 312 312 312 315 313 308 311 313 310 313 319 318 315 317 317 316 316 316 316 316 317 316 317 318 316 313 313 314 313 312 312 311 311 312 313 314 313 314 313 313 312 312 312 313 314 313 311 312 314
294 294 294 295 296 296 297 298 298 297 298 299 300 302 303 304 303 302 301 301 303 305 306 306 306 307 309 312 316 315 310 312 315 314 316 316 310 312 321 320 314 316 315 311 313 313 308 311 318 316 314 317 315 312 314 318 318 317 317 315 317 317 314 312 312 312 312 312 312 312 313 314 314 314 313 312 312 313 313 313 313 314 314 313 311 311 312
293 295 296 297 298 298 299 300 300 300 301 301 301 301 301 301 302 302 301 302 303 304 305 305 306 307 307 310 313 314 311 313 315 312 314 314 309 311 320 319 312 312 313 311 312 312 310 317 322 317 314 315 312 310 315 320 318 315 314 313 313 315 313 312 312 312 312 312 312 312 314 314 313 313 313 312 312 313 313 312 312 312 312 312 311 311 310
295 297 297 298 300 302 303 303 301 300 301 300 300 302 302 302 303 304 303 303 305 305 304 305 305 305 305 307 311 311 309 311 315 314 312 311 309 309 313 312 308 310 310 307 310 315 317 320 321 316 312 312 312 311 314 315 314 313 313 312 312 313 313 312 312 312 313 312 311 311 312 312 311 311 312 312 311 312 312 311 310 310 310 310 309 309 309
296 297 296 298 301 303 302 300 298 298 300 300 301 304 305 303 305 307 305 304 305 305 304 305 305 304 306 309 312 310 306 309 316 317 312 310 310 311 311 309 308 310 310 308 313 321 319 315 315 315 313 312 312 311 312 314 314 313 313 313 313 313 313 312 312 311 312 312 311 311 313 313 312 311 311 311 311 310 311 311 310 308 308 307 307 308 309
295 295 295 297 298 298 297 297 297 298 301 302 303 305 305 304 307 308 306 306 307 307 306 306 306 304 305 308 312 312 308 307 311 314 312 312 313 311 309 308 307 308 308 308 314 323 321 314 313 316 315 314 313 311 311 315 316 313 312 314 314 314 314 313 309 306 307 309 309 309 309 311 312 312 312 312 312 311 311 310 309 307 306 306 307 307 308
294 293 294 295 295 294 295 297 298 300 303 304 305 306 306 307 308 308 306 308 311 310 307 307 309 310 310 308 310 313 311 308 310 312 312 314 315 310 306 308 309 308 307 306 310 318 320 315 313 316 319 319 316 312 312 315 316 313 313 315 315 314 314 312 307 305 306 308 310 309 306 305 307 308 308 308 309 311 310 308 307 307 307 307 307 307 307
293 293 293 294 294 294 296 298 299 302 305 306 306 307 307 307 308 307 307 309 312 310 308 309 312 315 315 312 311 314 312 309 310 312 311 312 314 310 307 307 308 307 308 310 313 317 318 314 312 316 320 318 314 311 312 313 313 312 313 314 314 313 312 311 309 307 306 306 308 308 305 303 304 305 306 305 307 308 308 307 307 307 307 307 307 307 307
293 295 295 295 296 296 298 300 302 304 306 307 307 308 308 307 308 308 308 310 311 309 309 311 312 313 314 312 312 314 312 308 309 312 311 309 310 309 308 308 308 307 311 316 317 316 313 311 312 317 318 315 312 311 311 311 310 310 311 311 308 306 305 307 308 307 305 304 305 305 305 305 305 306 307 307 307 307 307 307 307 307 307 307 307 307 307
295 296 296 296 298 299 301 303 304 305 306 307 308 308 309 309 310 309 310 311 311 309 308 309 308 309 313 315 313 313 312 310 310 310 309 308 309 308 307 307 309 311 313 315 314 312 310 311 313 314 315 313 310 309 309 310 309 310 310 310 306 303 304 306 309 308 307 307 306 305 305 306 307 307 307 307 307 307 306 306 306 307 307 307 307 307 307
296 297 297 298 301 302 303 305 306 305 306 307 308 308 308 308 309 309 310 310 309 307 307 307 306 307 312 315 313 312 313 312 309 308 308 308 308 308 307 309 312 313 311 312 312 311 311 313 314 313 312 312 311 309 309 309 309 309 310 310 309 309 309 311 312 311 309 308 306 305 305 306 306 306 307 307 307 307 306 306 306 307 307 307 307 306 306
296 297 298 300 302 303 303 304 306 307 306 306 307 308 307 307 308 309 309 309 308 306 306 306 305 306 311 313 311 312 313 310 307 309 311 309 307 307 308 309 311 309 309 312 314 312 313 316 317 314 311 311 311 309 309 308 308 308 310 310 311 311 311 311 312 310 308 306 305 305 305 305 305 306 306 306 307 307 306 306 307 307 307 307 307 306 305
296 296 298 300 302 301 301 304 306 306 306 307 309 309 308 308 308 308 307 307 307 306 305 306 306 307 312 313 311 314 318 313 306 309 313 309 306 308 310 309 308 307 309 312 313 313 315 318 318 314 312 312 310 309 308 308 307 309 310 310 310 310 310 311 311 309 306 305 305 304 304 305 306 306 306 306 307 307 306 306 306 306 307 307 307 306 305
296 296 298 300 301 301 302 304 304 303 304 307 309 309 308 308 309 308 307 307 306 305 306 306 306 309 315 316 311 313 317 313 306 308 311 308 306 308 309 307 307 308 310 314 316 315 316 318 316 313 312 311 308 307 308 308 307 308 310 311 311 310 309 310 310 307 305 304 305 304 304 305 306 306 306 306 306 306 306 306 306 306 307 307 306 306 305
295 295 296 298 299 300 302 302 301 301 303 306 308 309 309 309 310 309 308 307 305 304 305 305 305 307 313 314 309 308 312 311 306 306 309 307 306 307 307 306 308 310 312 315 317 317 316 315 314 312 311 310 308 307 307 307 307 309 310 309 308 307 307 308 308 306 305 305 305 304 304 305 306 306 306 306 306 306 306 306 306 306 306 307 306 305 304
294 294 295 297 297 299 301 302 301 301 302 302 305 309 310 309 310 310 309 306 305 305 307 309 308 307 309 310 307 307 311 311 307 306 306 306 306 307 305 304 307 311 312 314 316 316 316 315 313 312 311 309 308 307 307 307 308 310 308 305 303 304 305 306 306 305 305 305 305 305 305 305 306 306 306 306 306 306 306 306 306 306 306 306 306 305 303
293 294 297 299 298 298 299 299 299 299 297 296 299 306 309 309 309 309 307 306 306 307 310 312 310 307 307 308 307 307 309 309 308 308 308 308 309 309 307 307 310 313 313 313 314 314 314 314 313 311 310 309 308 308 307 307 308 307 304 302 303 304 305 305 306 305 305 305 305 305 306 305 306 306 307 307 306 306 306 305 305 305 305 305 305 304 303
294 295 297 299 298 296 296 296 297 298 296 295 297 303 308 310 310 308 306 306 307 307 307 307 306 305 306 307 306 306 307 308 308 309 309 308 308 311 311 311 312 312 312 312 313 313 313 313 312 310 310 309 309 308 307 308 308 305 302 302 303 304 304 305 305 305 305 305 305 305 305 305 305 306 307 306 306 306 306 304 304 305 304 305 305 304 304
Wind_Speed
24 26 27 28 30 31 33 35 37 40 41 38 32 18 5 1 4 8 8 2 2 0 2 2 2 3 5 7 9 9 7 5 4 5 5 4 2 1 0 1 2 2 4 4 5 4 3 4 5 3 3 5 6 8 12 11 7 5 4 5 4 2 1 3 3 2 2 3 3 6 8 6 4 3 3 5 4 4 5 4 4 3 3 1 3 2 6
24 25 26 28 29 30 32 33 36 38 38 37 28 11 2 3 4 4 4 1 1 1 2 4 4 5 7 9 9 8 5 4 5 6 6 5 3 2 1 1 2 4 5 5 6 4 2 4 5 3 3 4 7 11 13 11 7 5 4 4 4 3 2 2 1 2 2 1 1 1 3 4 3 2 2 5 5 5 4 3 3 1 4 4 5 3 6
23 25 26 27 28 30 30 31 34 36 35 34 24 7 2 4 2 2 3 2 2 1 1 4 5 7 10 11 10 7 4 4 5 8 8 5 3 2 3 3 4 6 6 5 6 5 3 3 3 3 4 6 8 8 11 12 7 5 8 6 4 3 2 3 4 4 5 6 5 5 4 3 2 2 3 5 6 6 5 4 4 2 3 4 5 4 5
24 25 25 26 27 28 29 29 32 35 32 31 24 10 3 3 1 2 4 1 1 0 3 3 4 6 9 9 7 7 5 3 5 6 5 4 3 3 3 4 5 6 5 4 4 3 4 5 4 5 5 4 7 8 6 12 9 7 13 10 4 2 2 2 5 6 6 5 5 4 5 5 2 2 3 3 7 8 6 4 4 5 2 1 3 5 2
24 24 24 25 26 26 28 28 30 32 30 26 20 9 2 2 2 3 4 3 2 2 3 3 5 7 7 5 5 7 9 7 3 2 2 3 4 3 3 3 4 4 6 4 2 4 6 6 4 5 5 4 8 11 5 12 12 11 12 8 3 2 2 2 4 6 5 2 3 3 5 7 6 5 4 1 3 7 7 4 5 6 4 2 6 3 4
23 24 24 24 26 26 26 26 27 30 29 23 15 5 1 3 2 2 3 3 3 4 6 7 9 11 8 3 4 8 11 10 5 2 3 4 4 1 1 3 4 5 8 5 3 6 7 4 1 4 5 5 9 10 0 8 9 11 6 2 4 4 2 4 4 5 2 3 6 5 3 6 6 6 5 3 5 7 7 6 6 7 6 6 6 6 6
22 23 23 23 24 25 25 25 26 28 28 22 12 4 2 2 2 2 2 3 5 6 9 10 10 11 9 4 3 8 12 10 7 4 3 4 3 1 2 5 5 7 9 5 3 5 5 4 2 4 6 6 7 6 2 2 1 5 3 1 2 4 1 4 3 4 5 6 5 5 4 4 5 5 3 3 6 7 6 5 5 7 7 4 4 6 7
21 22 22 23 23 23 24 24 24 27 27 21 11 5 4 2 2 3 2 3 6 6 7 8 7 7 7 4 4 7 9 10 9 6 3 4 4 2 3 8 9 8 7 5 5 5 4 5 5 4 6 6 5 3 2 4 7 6 3 1 2 3 2 3 3 5 5 6 5 7 6 4 5 5 5 4 5 5 4 4 4 4 5 4 5 2 4
21 21 21 22 22 22 22 22 23 26 27 19 8 5 8 7 7 6 5 4 5 5 5 6 5 4 3 4 6 7 8 10 12 8 4 4 5 5 8 10 9 6 6 6 7 7 5 6 7 6 4 3 2 2 1 2 6 7 2 1 3 3 0 3 4 5 4 6 5 7 8 7 8 8 8 7 5 2 3 4 4 4 6 7 7 2 4
20 20 20 21 22 22 21 21 21 23 25 19 8 6 11 11 8 6 4 4 4 5 5 6 4 3 4 6 8 8 9 12 12 7 3 3 5 7 8 9 6 5 6 7 7 7 7 7 8 7 6 6 6 6 7 5 3 4 3 1 2 2 3 2 4 4 3 6 4 6 7 7 5 3 3 2 3 2 2 3 4 0 6 8 6 5 5
19 19 20 20 21 21 20 19 20 20 23 21 12 9 13 12 7 4 3 3 4 3 4 5 3 3 7 11 10 10 12 14 11 7 4 5 8 10 9 7 4 4 6 6 4 7 10 9 9 8 7 9 10 9 10 10 8 8 4 1 2 2 5 3 2 4 2 6 5 6 5 3 2 4 3 3 3 4 8 4 6 5 2 3 5 5 5
19 18 19 19 20 20 19 19 20 20 20 21 16 13 16 16 10 4 2 4 5 4 4 5 4 6 10 12 11 11 13 13 11 9 6 7 9 10 8 4 2 3 5 4 6 9 9 6 6 7 7 9 12 10 9 8 7 7 6 5 4 4 5 3 2 3 1 3 6 5 2 4 6 5 5 4 3 5 9 6 6 9 8 5 2 9 9
18 17 18 18 19 19 18 18 18 18 18 20 19 15 18 19 10 2 2 4 4 4 5 7 8 9 10 11 12 12 12 12 11 8 7 8 9 9 5 2 3 4 4 7 10 9 6 3 2 4 5 5 5 5 4 3 1 2 3 5 6 5 4 2 2 3 1 2 5 3 4 5 4 5 6 4 3 4 6 6 7 8 9 7 2 7 8
18 17 17 18 17 18 18 17 17 18 18 19 19 18 19 17 9 3 3 3 4 5 6 7 8 9 11 12 11 10 11 11 10 8 6 7 8 9 7 4 4 5 5 6 7 4 2 2 3 3 4 5 4 5 6 5 3 5 6 5 5 6 4 2 2 2 2 3 2 1 1 4 5 3 4 2 2 2 1 3 4 5 6 7 4 1 5
18 17 17 18 18 17 17 17 18 18 18 18 19 19 19 18 13 8 3 2 6 7 4 2 7 11 13 12 10 8 8 8 9 9 7 4 4 6 8 6 5 4 3 2 3 2 2 2 3 3 3 4 2 3 4 4 3 3 5 6 6 6 5 4 3 2 2 4 2 2 3 3 3 4 6 3 3 5 3 4 3 6 6 7 5 1 3
17 17 16 18 18 18 17 17 17 17 18 18 19 20 20 16 13 10 6 2 4 5 3 4 7 8 9 9 7 6 5 6 7 8 6 6 7 8 8 8 5 2 1 1 2 1 3 3 2 2 1 1 1 2 3 3 3 5 5 8 9 8 5 5 5 3 2 4 3 1 1 1 5 6 8 8 5 4 2 4 3 5 6 9 5 1 2
17 17 17 17 18 18 18 18 18 17 18 18 19 21 20 14 11 12 8 2 2 5 7 7 5 4 5 6 5 3 3 4 5 4 5 7 9 9 9 9 5 2 2 2 1 2 4 3 2 2 1 2 0 0 3 3 3 4 5 7 8 6 5 4 4 3 2 4 2 1 2 1 3 5 8 10 8 3 4 2 4 5 6 9 5 1 0
16 17 17 17 17 18 17 17 18 18 17 17 19 20 19 15 14 13 7 3 3 5 5 3 5 5 5 4 4 3 3 5 5 3 4 5 5 7 9 8 5 3 3 3 2 3 4 3 2 2 1 2 1 1 2 3 2 1 1 4 4 4 4 2 3 3 3 3 3 1 1 1 4 7 9 10 6 4 4 4 6 4 6 7 5 3 2
16 16 17 17 17 17 17 17 18 18 17 18 19 18 19 17 15 12 7 3 2 4 7 9 9 8 7 5 5 4 4 5 4 3 4 4 4 8 9 5 3 4 3 2 3 3 3 3 1 2 1 3 2 1 1 2 2 2 2 4 3 2 3 2 2 2 2 2 3 1 2 2 5 8 8 6 3 1 3 5 4 3 5 6 4 4 3
15 15 16 17 17 17 17 17 17 17 18 19 19 19 21 18 14 12 10 5 3 6 12 11 9 10 8 5 6 6 5 5 3 2 2 3 5 8 6 2 3 5 3 3 4 3 3 2 2 1 1 2 2 1 1 2 2 1 1 2 1 1 1 2 1 0 1 3 3 1 2 2 6 8 6 5 3 3 4 2 3 4 4 4 5 5 4
15 15 15 16 17 17 17 17 17 17 17 17 18 19 21 19 16 15 15 11 5 4 6 7 8 12 14 13 15 14 10 9 8 5 2 4 5 4 2 2 4 4 3 2 2 2 1 1 2 1 0 1 1 1 2 2 2 2 1 3 2 1 1 1 1 1 2 3 1 1 3 4 5 3 1 1 2 4 3 0 3 4 3 2 3 4 3
15 16 16 16 17 17 17 17 17 17 17 17 18 17 18 21 22 20 19 15 10 9 15 21 24 28 32 32 29 25 22 22 22 15 5 3 4 2 2 3 4 2 2 2 2 2 2 1 1 1 2 2 2 2 1 1 1 4 3 3 2 1 1 2 1 0 2 3 3 3 3 4 4 2 2 3 3 3 1 3 1 3 3 0 2 1 1
14 16 16 16 17 17 16 17 17 17 16 17 18 17 18 23 25 23 20 14 11 14 22 26 25 25 26 23 19 19 21 25 28 24 15 6 3 3 3 3 2 2 2 1 2 1 2 1 1 1 1 1 1 1 2 2 1 2 3 2 1 1 1 2 3 2 2 2 1 1 2 4 5 4 2 2 4 5 4 4 3 3 4 2 1 2 1
14 16 16 16 17 17 16 16 17 17 17 17 17 18 20 22 22 20 16 8 5 7 10 10 8 8 10 13 19 22 19 17 20 22 20 15 5 3 3 3 2 1 2 1 0 0 1 1 1 1 2 0 1 2 2 2 2 1 2 2 3 2 1 3 3 2 2 1 2 2 3 4 5 5 4 5 7 7 7 6 5 4 4 3 2 2 3
15 16 16 16 17 17 17 17 17 17 18 17 18 19 21 21 19 16 11 6 3 4 4 4 6 8 11 20 26 22 14 11 13 14 19 22 16 7 4 2 1 2 3 3 1 1 1 1 1 2 2 0 1 2 1 0 1 1 2 2 3 2 2 3 2 2 2 2 3 3 1 3 5 6 5 5 6 7 7 7 6 7 6 4 3 2 2
16 16 16 16 16 17 17 17 17 18 18 18 19 20 21 24 24 18 12 8 5 4 3 4 8 13 18 24 24 19 13 13 12 13 20 25 26 21 12 7 5 3 3 2 2 2 2 1 1 2 1 0 1 2 1 0 1 2 2 1 3 1 3 1 1 3 4 2 1 1 2 5 7 7 6 5 5 6 8 8 9 10 10 8 6 4 1
16 16 17 17 17 17 17 17 17 18 18 18 20 22 25 28 25 18 13 9 3 2 3 3 7 16 21 21 22 22 18 15 13 16 21 24 25 24 16 9 6 4 4 3 2 1 2 2 2 2 1 0 2 2 1 0 2 3 2 3 2 2 3 1 3 4 1 1 2 1 2 2 3 4 5 5 5 6 9 9 10 10 9 8 7 7 5
16 17 17 17 17 17 17 16 17 18 18 19 22 26 25 21 15 11 12 12 7 3 4 3 7 15 18 17 21 23 21 17 15 17 22 22 21 19 13 7 5 3 3 2 3 2 2 2 2 1 1 0 2 2 2 2 3 3 3 4 2 2 1 1 4 3 2 3 3 3 4 2 1 2 4 5 5 7 9 8 7 7 7 7 7 7 6
16 17 18 17 17 17 17 17 17 17 17 19 23 22 15 6 1 2 3 6 9 6 4 5 6 7 8 14 22 24 20 17 12 14 19 16 14 13 9 6 5 4 2 1 1 1 1 0 1 1 1 2 2 1 2 2 3 2 3 3 2 2 2 2 5 4 2 2 3 4 5 4 2 3 5 5 5 6 7 6 6 6 6 6 7 6 5
17 18 18 17 17 17 16 16 16 16 16 18 18 13 6 4 5 8 8 5 3 3 2 3 5 4 5 10 14 15 14 14 11 10 13 10 8 9 9 7 5 3 2 1 1 1 1 1 1 2 1 3 4 2 1 1 2 2 3 3 3 4 4 3 3 3 3 3 3 5 5 4 2 4 6 7 5 5 5 5 5 6 5 5 6 6 6
17 18 19 19 18 17 16 16 16 15 16 15 10 3 0 1 3 9 8 6 11 7 2 3 4 5 6 6 6 9 14 14 8 5 8 8 8 8 10 8 4 2 1 1 1 1 1 1 2 3 2 3 4 3 2 2 2 1 3 3 3 4 3 4 4 5 5 5 5 7 7 5 4 4 6 7 7 6 5 5 5 6 6 6 6 6 6
18 19 20 20 18 16 17 18 17 16 16 15 11 9 10 10 7 8 6 9 13 7 1 3 4 3 4 4 6 10 13 11 5 2 3 5 4 3 4 5 3 2 2 2 2 1 1 1 1 2 2 2 4 3 3 3 2 3 3 1 2 4 4 4 4 5 4 5 6 7 6 5 4 4 3 4 6 6 6 5 5 8 8 8 8 8 9
19 20 20 20 19 18 18 19 18 18 18 18 19 23 22 18 14 11 12 14 12 4 3 2 3 3 3 5 7 7 5 4 3 1 2 3 1 0 1 1 1 1 2 2 1 1 0 2 2 2 3 2 4 3 2 1 3 5 5 3 2 3 4 4 5 5 4 3 4 5 3 2 3 4 4 4 6 6 6 5 6 8 9 8 8 9 9
20 21 20 20 20 20 21 21 20 18 15 13 16 18 14 9 9 9 11 11 7 4 4 2 2 3 3 4 5 4 2 3 3 0 2 3 1 3 1 2 3 2 0 0 1 1 2 2 3 2 3 3 3 3 1 2 4 4 3 1 1 3 5 5 5 5 4 3 4 4 5 5 4 4 6 6 6 6 7 7 6 7 7 6 6 7 6
21 20 20 21 22 22 22 19 14 11 7 8 10 9 5 2 4 5 10 11 4 1 3 2 1 3 4 4 4 5 4 4 3 2 3 3 1 2 2 1 2 0 2 1 1 2 1 1 3 2 2 3 3 1 2 4 5 4 1 2 2 3 4 3 3 4 4 5 6 5 4 6 6 5 6 6 5 6 6 6 5 6 6 5 5 6 6
20 20 21 22 20 17 13 8 5 6 4 4 7 9 7 4 4 5 11 11 5 2 2 1 1 3 2 1 4 5 5 4 3 1 0 1 1 1 2 4 1 2 1 2 2 2 1 2 3 2 3 2 1 3 4 6 5 3 1 3 3 3 3 2 4 6 5 5 6 5 5 7 7 5 5 4 4 5 5 6 6 6 5 5 5 5 5
18 18 18 16 11 6 3 1 4 3 3 8 12 13 10 6 3 4 7 8 6 6 3 2 3 4 3 2 4 4 4 3 3 3 3 1 1 1 2 4 1 2 1 3 1 0 1 2 3 3 1 1 2 4 2 5 5 3 3 4 4 5 5 5 6 8 7 6 7 6 6 7 5 4 4 4 5 5 5 5 4 4 3 3 3 4 4
15 13 10 6 3 1 0 0 0 5 11 14 12 8 4 2 2 2 3 3 4 5 3 2 4 3 2 3 4 3 3 3 2 3 2 1 0 2 2 2 1 1 2 1 3 1 3 3 3 3 0 3 2 1 2 5 5 3 5 5 4 5 5 4 6 8 7 5 5 4 5 6 4 3 3 4 3 3 4 3 3 3 2 2 3 3 3
11 9 6 3 1 1 2 5 9 12 12 8 4 2 1 1 1 2 2 1 2 2 2 3 4 3 4 5 5 4 3 2 3 4 2 1 1 1 1 1 1 1 2 1 3 1 3 2 2 2 1 3 1 1 3 5 5 4 5 5 5 5 6 5 6 7 7 5 5 5 5 5 4 3 2 3 3 3 3 3 3 3 3 3 3 3 3
10 7 4 1 2 6 10 14 15 11 6 1 1 1 0 1 1 2 1 1 1 2 3 3 3 4 6 6 4 4 3 2 0 1 1 1 1 1 1 0 1 2 2 2 3 1 3 2 2 2 1 3 3 3 3 5 6 5 4 5 6 6 6 6 6 7 7 6 5 6 6 6 5 5 4 4 3 3 3 3 3 3 3 3 3 3 3
8 6 3 4 9 15 19 17 10 4 0 1 0 0 0 1 2 1 1 2 2 2 2 3 2 3 5 6 4 4 4 2 1 2 1 1 2 1 2 1 1 2 2 3 2 2 3 2 2 0 4 4 4 4 4 5 5 4 4 5 5 5 6 7 7 8 9 7 5 5 6 6 6 5 4 4 3 3 3 3 3 3 3 3 3 3 3
10 9 10 13 16 16 13 8 3 0 1 1 0 1 1 2 2 1 1 2 2 2 2 3 3 4 4 4 4 4 3 2 1 3 2 2 2 1 1 1 1 3 1 3 0 4 3 2 0 3 5 4 5 5 5 5 5 4 5 6 5 6 7 7 6 8 9 8 5 4 6 7 7 6 6 6 5 4 4 4 4 3 3 2 2 2 3
11 8 7 8 8 5 3 1 0 0 1 1 0 1 2 2 2 1 1 2 1 1 2 2 2 3 3 1 1 2 2 0 1 2 1 2 2 1 2 2 1 1 3 1 3 4 2 1 2 5 5 4 5 5 5 5 5 5 6 6 6 7 7 6 6 7 9 9 7 7 8 8 7 6 7 7 6 5 5 5 4 3 3 3 2 2 2
8 3 1 2 2 1 1 1 1 1 1 1 1 1 1 2 2 2 2 2 3 3 3 3 4 5 5 2 0 1 2 1 1 1 0 1 1 2 2 0 2 2 1 2 3 2 1 2 4 4 3 4 4 5 6 6 6 6 6 5 6 8 8 6 6 6 6 6 7 8 9 9 7 6 7 7 6 5 5 6 5 4 4 4 4 3 3
5 1 1 1 2 1 0 1 1 1 1 2 2 2 2 3 2 2 2 3 3 4 5 5 5 5 6 3 1 1 1 1 1 0 0 1 2 1 1 2 1 1 2 3 2 1 0 2 4 2 3 6 5 5 6 6 5 6 6 5 6 7 6 6 5 5 4 4 6 7 7 7 6 6 6 6 6 5 5 5 5 5 5 5 5 4 4
1 0 1 1 1 1 0 0 1 1 1 2 2 2 2 3 4 3 3 2 3 4 6 6 6 6 5 3 1 1 1 1 1 1 0 2 1 1 2 0 2 3 3 2 2 0 2 4 5 3 4 6 5 5 5 5 5 6 6 5 5 5 5 5 5 4 3 5 7 7 6 6 7 7 6 6 6 5 4 4 5 5 6 6 6 6 6
1 1 0 1 1 1 1 1 2 2 2 2 2 3 3 4 4 3 2 2 3 4 5 5 5 5 4 2 1 2 2 1 0 2 0 3 1 2 1 3 1 0 2 2 2 3 4 4 4 3 5 6 5 5 5 5 5 6 6 5 5 5 5 5 4 3 4 6 6 6 6 7 8 8 7 6 6 5 5 5 5 5 5 6 7 8 8
1 1 0 1 1 1 2 2 3 3 2 1 2 3 2 2 2 3 3 3 2 3 5 5 4 3 3 2 0 1 2 1 0 2 0 2 1 1 2 2 1 1 1 3 4 4 4 4 4 4 5 6 6 6 6 5 6 7 7 6 5 5 4 4 3 4 5 7 6 6 7 9 9 8 8 7 6 5 5 6 6 6 6 7 9 10 10
2 1 1 1 1 2 3 2 3 4 3 2 3 3 2 2 3 4 3 2 3 4 4 3 2 2 3 2 1 1 1 1 0 1 1 2 1 1 1 1 0 0 1 3 4 4 4 4 3 4 5 5 6 6 6 6 6 6 6 6 6 5 5 4 3 3 5 7 8 7 8 9 9 8 7 7 7 6 6 6 7 6 7 9 10 11 11
2 1 1 1 1 2 3 2 2 4 4 4 3 3 3 3 4 4 2 2 4 5 4 2 1 1 2 1 1 1 2 2 1 1 1 0 1 2 2 1 1 3 3 3 3 4 5 4 3 5 6 6 6 6 6 6 6 6 5 6 7 7 6 5 4 5 6 7 9 9 9 9 9 8 7 7 8 8 7 7 7 6 7 9 11 12 13
1 1 1 2 3 2 2 2 2 4 5 5 5 5 3 2 3 3 1 1 3 4 4 2 1 1 2 1 1 1 2 1 1 1 1 2 1 3 3 2 4 5 4 2 2 3 4 4 5 6 6 6 6 6 6 6 6 6 6 8 9 9 7 6 7 8 8 9 10 10 9 9 8 8 8 10 10 9 7 6 6 7 7 9 10 12 14
1 1 2 3 3 3 3 3 3 4 5 5 5 4 2 2 3 3 1 3 3 3 3 2 1 1 1 2 1 1 1 1 2 1 1 1 1 3 5 5 5 5 4 3 3 3 4 4 5 6 7 6 6 6 6 6 5 6 7 9 10 9 7 8 9 9 8 9 11 10 8 7 8 10 11 11 10 7 5 5 7 8 8 8 10 12 13
Wind_Direction
345 346 347 346 347 346 346 346 345 350 356 355 348 340 322 330 300 297 314 299 193 309 314 271 268 269 273 279 283 288 286 273 275 298 314 317 299 268 124 184 258 240 227 259 290 292 289 266 251 272 288 248 223 221 215 198 171 159 185 203 196 175 197 241 263 290 295 348 58 130 138 118 133 201 160 122 142 151 144 163 179 188 225 144 103 231 262
345 345 345 345 346 346 345 345 345 349 356 354 345 335 313 314 275 284 314 244 179 17 323 310 307 297 297 293 288 282 267 261 277 297 310 315 325 331 292 229 224 243 249 263 283 297 286 270 276 284 293 282 255 231 209 194 184 175 184 192 186 202 214 168 135 50 54 48 44 139 161 144 152 190 137 121 133 135 144 150 123 191 233 156 136 230 257
346 345 345 345 346 346 345 346 346 349 356 357 351 329 273 314 258 254 307 263 156 117 284 300 302 310 316 310 303 298 270 235 255 286 300 294 291 302 273 258 256 265 272 269 273 272 231 248 306 307 291 297 285 249 201 191 190 186 202 196 159 188 207 121 130 152 151 169 195 203 194 172 143 145 136 142 148 151 164 152 120 210 243 136 140 210 255
349 348 348 347 347 348 347 348 349 350 357 360 352 330 293 341 322 303 319 306 118 282 273 290 303 312 320 316 311 316 315 278 248 271 292 286 279 262 244 269 276 272 288 293 282 275 246 250 283 304 301 295 303 301 231 193 181 190 208 201 128 112 226 131 129 154 171 190 216 203 149 135 163 155 126 165 187 173 149 123 149 189 181 103 211 201 194
352 351 351 351 351 352 351 351 352 353 358 2 354 333 303 6 350 328 335 322 327 332 312 331 322 305 308 315 310 316 321 322 303 270 279 295 297 267 234 259 262 283 321 325 288 300 293 269 262 294 297 280 307 315 257 184 188 204 206 193 129 106 248 226 140 151 179 205 314 322 126 139 170 161 122 110 176 161 149 164 199 173 132 272 262 200 149
352 352 352 353 354 354 354 355 355 356 0 6 5 349 345 12 342 327 345 316 309 328 318 317 315 306 306 301 293 314 323 326 332 325 291 299 308 308 273 270 262 307 335 335 304 317 321 312 330 331 316 320 333 332 175 159 190 210 203 156 135 135 204 231 160 133 116 36 11 356 113 142 149 147 153 137 119 139 158 192 204 153 148 224 224 179 189
351 351 352 353 355 355 355 357 358 357 2 10 16 13 7 5 310 307 346 307 290 291 291 299 307 311 317 317 299 320 324 323 327 325 300 304 307 186 258 299 316 331 334 332 319 327 333 327 342 353 340 344 352 342 347 66 293 231 216 208 135 124 205 250 141 91 27 26 31 28 63 125 127 122 163 164 138 152 164 193 199 150 148 196 175 173 216
350 351 351 353 356 357 356 359 359 358 3 12 24 35 25 0 304 316 319 286 283 277 284 304 309 310 325 332 319 321 319 317 322 319 293 297 301 279 295 316 325 325 324 324 297 278 281 278 275 313 337 347 5 357 352 11 344 312 242 225 42 98 218 275 86 77 7 356 13 28 47 108 117 70 23 36 88 125 156 193 206 139 124 104 86 124 248
350 350 351 352 356 357 357 0 1 0 4 10 14 14 3 335 302 307 304 293 306 303 305 322 312 306 338 337 323 322 314 314 319 311 261 242 275 312 331 326 319 312 316 311 285 272 270 259 257 268 285 291 308 306 285 359 344 319 268 135 34 67 105 324 58 73 341 326 359 21 44 77 70 38 11 15 48 111 182 204 206 164 139 112 96 139 241
349 350 350 353 356 355 356 359 360 1 6 9 2 342 346 335 310 309 303 285 303 312 316 324 315 311 338 326 316 313 309 314 320 317 285 263 292 317 321 310 304 315 312 296 282 290 290 270 264 263 251 246 245 242 249 256 266 278 285 37 57 90 92 40 69 85 302 304 355 27 49 68 48 346 313 324 351 34 57 354 332 77 136 135 149 199 215
348 349 349 352 356 355 356 358 360 1 5 7 358 332 335 335 320 315 312 282 291 315 321 324 329 329 322 318 316 312 312 319 329 336 332 309 306 307 297 286 289 295 282 269 275 292 282 266 259 258 249 252 254 246 247 248 231 226 234 61 41 65 91 90 85 106 258 305 357 43 65 93 240 263 252 250 294 59 83 56 347 356 45 167 177 160 152
346 347 347 351 355 356 356 357 359 2 3 0 353 335 336 338 325 305 319 301 299 318 315 301 300 306 307 311 317 316 313 318 325 328 311 289 292 295 286 271 269 269 269 291 318 314 298 272 253 255 250 248 251 248 244 247 240 221 193 132 91 63 78 75 56 102 169 329 29 66 129 221 241 280 305 271 223 115 101 78 15 11 3 333 160 141 152
345 345 344 347 352 355 355 356 358 359 357 355 351 340 338 340 330 290 325 307 286 307 315 298 291 295 302 311 317 312 309 312 313 307 290 284 299 312 309 250 227 263 304 325 324 323 320 318 292 271 275 275 274 282 291 310 20 91 106 102 106 104 92 82 72 88 120 46 62 129 215 260 288 314 329 348 52 71 67 40 8 8 3 335 244 163 160
343 343 342 343 347 350 351 352 355 355 353 353 349 340 338 340 335 309 321 306 286 298 300 294 304 316 319 320 318 313 316 323 324 321 310 301 314 327 332 321 268 273 306 322 317 326 351 5 13 343 327 353 11 349 343 0 54 86 80 81 109 116 102 78 65 66 109 104 84 214 271 337 344 334 320 359 48 323 60 71 336 334 5 350 327 176 154
341 340 340 340 342 347 349 350 353 353 351 351 346 338 336 339 334 318 296 288 305 301 278 294 330 330 323 317 317 319 325 335 335 327 314 300 312 320 321 321 301 275 281 305 305 334 44 56 37 14 358 13 17 324 329 350 13 41 68 83 87 90 101 116 100 56 84 100 64 15 33 352 281 273 291 282 213 238 188 116 335 323 357 354 340 179 183
339 337 336 337 340 343 346 348 350 350 348 349 347 338 336 343 341 323 306 291 298 286 273 311 322 318 310 304 305 315 324 333 333 325 321 333 338 329 322 325 325 292 278 294 284 353 49 77 87 74 29 335 320 303 316 336 350 356 32 63 65 62 73 94 90 60 64 97 98 108 123 231 250 266 296 310 301 267 153 103 324 309 345 343 333 179 223
336 335 334 334 336 338 341 343 345 347 347 348 345 334 333 345 345 325 312 282 267 274 277 293 309 312 311 307 307 312 307 314 325 328 326 327 328 329 332 331 331 357 28 4 347 39 58 65 67 71 27 300 315 50 316 340 9 353 10 38 47 47 38 45 63 52 52 92 107 216 181 214 270 282 298 307 314 358 101 131 268 286 332 334 332 110 150
332 333 332 332 332 334 337 338 340 344 345 346 342 330 327 338 341 329 310 272 288 278 255 282 323 307 282 283 300 303 296 308 321 320 298 294 308 331 333 327 329 1 26 22 11 36 58 59 58 71 5 308 356 103 325 342 358 304 24 57 50 41 35 52 93 66 40 88 109 300 277 269 300 305 304 305 323 41 103 198 238 273 315 322 343 29 28
326 330 330 330 330 331 333 335 338 341 341 344 344 332 323 333 344 339 321 282 265 267 271 294 302 275 252 257 269 268 285 298 296 301 307 308 329 330 321 307 325 348 359 21 21 36 50 39 32 80 40 324 326 78 5 346 337 316 39 72 68 43 14 13 79 68 27 94 102 40 273 309 332 320 312 325 17 111 210 231 240 273 302 321 3 19 17
321 325 327 328 328 328 331 333 335 339 338 341 344 332 322 328 343 342 326 301 255 278 286 283 259 237 237 252 260 269 304 304 274 273 291 284 319 336 338 336 342 339 349 24 25 28 45 19 338 27 47 316 322 54 1 334 341 354 45 62 85 117 46 10 4 2 49 67 58 53 209 290 334 336 341 15 47 199 224 280 321 298 302 341 14 13 15
319 321 323 327 325 325 328 330 332 336 335 337 341 330 319 322 332 334 325 312 293 283 288 285 268 259 260 263 263 262 261 254 253 263 270 270 301 344 359 309 318 332 348 21 21 5 39 27 307 315 122 299 349 22 341 338 345 336 44 78 68 71 116 133 239 307 76 92 88 218 210 261 312 359 100 178 281 249 211 124 338 318 328 25 36 16 13
315 317 320 324 322 322 325 327 330 332 330 332 336 328 314 315 321 328 325 309 280 257 267 277 282 280 277 276 271 261 252 251 253 251 242 281 300 274 215 278 300 293 309 21 38 344 344 1 306 7 41 16 5 356 1 63 8 322 347 58 68 314 212 137 127 100 116 145 202 227 237 268 301 21 149 213 295 314 175 135 67 324 319 74 123 113 87
311 314 317 321 320 320 322 323 327 329 328 330 331 323 313 311 316 325 326 306 272 264 268 269 276 281 280 281 282 278 270 262 255 245 228 219 281 277 225 243 282 264 256 71 72 303 304 296 242 108 59 7 24 31 19 52 69 326 350 46 59 295 326 82 99 128 109 85 61 351 357 331 332 345 320 330 20 26 43 64 42 337 317 332 101 124 126
306 310 314 318 318 318 319 320 324 325 324 325 324 317 311 307 310 321 325 306 282 294 280 263 268 276 276 296 310 308 295 275 262 250 227 207 212 312 268 220 213 281 278 256 151 302 293 268 268 89 90 69 80 82 54 34 37 22 22 3 330 325 37 72 88 109 104 52 329 338 19 3 353 356 354 8 33 41 46 47 30 358 351 4 44 73 63
301 305 311 314 315 316 317 318 321 322 322 323 320 316 310 304 305 314 314 293 288 312 310 299 278 271 294 311 309 304 299 295 286 258 223 208 207 222 256 260 226 256 279 279 272 39 8 277 289 80 94 74 56 94 125 96 33 72 71 16 308 326 49 64 69 71 96 166 233 261 17 36 27 27 25 20 27 34 41 45 35 25 24 19 2 24 65
297 301 307 310 313 315 315 316 319 321 321 319 317 315 307 300 300 298 285 274 274 261 264 294 284 290 314 318 307 299 306 308 289 249 225 220 219 224 246 292 308 293 301 299 211 181 186 216 68 80 86 26 73 100 132 276 1 50 57 296 259 344 36 48 115 77 71 104 191 301 21 30 25 27 32 26 27 35 38 37 34 29 24 20 12 5 26
292 298 304 308 311 313 313 315 317 319 320 319 316 311 303 298 296 287 265 252 251 282 280 262 284 305 314 308 300 303 308 304 284 252 234 227 224 228 242 272 290 300 326 326 296 123 90 54 48 86 136 26 64 83 88 22 72 70 23 315 312 46 29 18 103 94 97 215 215 163 115 60 2 12 32 28 29 46 46 37 33 28 18 14 14 6 359
291 299 303 306 309 311 311 313 316 319 321 321 317 312 306 298 290 275 259 243 222 246 312 279 284 307 310 301 302 309 307 300 283 251 233 226 222 223 232 246 256 280 333 340 328 4 50 64 74 131 191 77 59 44 3 14 55 61 6 338 359 55 17 159 131 134 200 211 182 145 130 125 337 11 41 34 35 53 55 45 37 29 15 10 17 13 359
293 299 300 304 308 309 309 311 315 318 321 324 323 321 323 336 51 170 247 245 232 241 295 302 287 297 303 301 305 309 312 317 301 247 229 226 217 215 225 237 236 239 261 320 27 13 312 219 166 195 201 141 114 47 11 38 49 32 353 352 20 26 10 103 139 147 142 119 118 113 109 109 99 63 51 36 37 60 63 54 43 32 14 6 14 19 5
296 298 300 304 305 305 306 309 312 315 319 326 328 325 335 35 91 126 114 68 352 304 312 303 293 297 299 296 296 295 304 319 311 255 229 220 209 213 224 230 227 219 247 328 69 119 274 312 326 315 340 107 109 95 72 85 64 3 332 353 43 49 22 28 102 113 103 101 95 88 93 103 108 78 51 28 23 51 66 54 40 34 24 13 13 13 8
297 298 301 303 301 303 305 304 305 310 312 316 325 333 176 19 133 148 134 25 356 357 347 252 270 297 295 278 268 281 290 295 289 247 222 219 220 214 205 205 210 192 184 298 4 92 107 37 10 344 351 94 105 104 117 101 76 330 310 342 50 76 57 38 53 81 103 108 81 66 59 44 38 48 32 12 12 36 54 46 38 44 40 24 11 7 10
297 299 302 302 301 302 301 298 300 304 300 293 281 260 257 268 251 201 208 306 325 336 311 268 293 311 300 283 277 281 284 282 275 243 223 228 233 221 191 187 196 187 142 84 29 16 95 129 72 349 352 94 101 84 80 98 134 219 235 194 105 92 79 72 70 76 96 106 89 72 48 26 44 73 61 20 21 37 43 31 32 47 45 26 8 5 14
298 301 301 300 300 299 298 301 302 299 293 286 276 268 267 272 272 256 257 281 295 281 200 255 307 283 272 303 303 286 273 283 304 308 249 243 228 244 290 318 73 81 69 78 130 254 301 101 89 19 351 37 86 82 65 97 202 220 218 196 144 79 63 66 70 70 70 81 98 112 139 155 117 97 80 51 37 38 41 34 31 41 42 29 11 3 5
300 301 299 299 301 302 303 304 301 294 288 279 272 273 274 276 281 269 246 244 257 249 223 237 310 278 277 319 318 294 290 319 319 261 244 265 208 158 233 335 32 51 342 143 117 2 358 48 81 53 345 3 60 78 74 262 250 239 224 228 24 60 64 66 86 102 99 74 73 99 136 143 117 75 60 47 31 28 35 36 38 42 38 27 13 6 3
300 300 301 305 307 307 306 302 289 277 268 252 263 290 316 290 272 243 207 198 187 293 256 222 207 278 302 335 311 292 311 320 293 196 204 257 258 148 170 47 45 28 239 207 69 45 10 109 104 69 341 0 38 44 207 209 232 244 221 49 47 79 84 77 111 128 114 87 84 90 103 103 87 68 63 54 38 36 37 30 36 50 41 22 11 10 9
303 305 309 313 311 307 306 294 237 209 208 243 284 311 315 283 257 221 205 203 205 239 257 281 240 234 241 298 282 292 326 330 290 254 191 307 322 358 83 92 104 253 269 58 52 25 8 100 98 46 351 33 75 254 215 176 187 222 171 70 59 84 93 87 106 111 98 90 97 94 84 85 81 69 63 48 34 48 51 33 35 51 45 21 13 10 1
313 317 318 319 317 311 304 249 180 189 282 305 307 303 288 259 223 199 202 211 222 225 229 298 266 229 206 231 258 292 332 320 312 349 358 343 279 319 50 82 168 253 21 46 54 143 50 56 78 66 11 241 235 260 214 144 152 174 117 83 63 74 82 85 98 99 81 65 70 70 67 71 66 56 60 48 29 46 62 49 41 60 61 26 12 10 2
326 331 331 334 351 23 74 154 273 302 302 301 301 296 272 194 157 186 201 207 220 213 192 228 252 236 192 228 253 277 292 290 348 14 330 253 295 339 24 83 172 195 65 317 248 182 60 31 58 84 310 274 281 332 93 111 121 123 111 103 92 87 87 82 90 94 89 78 81 90 88 79 63 48 69 68 48 57 78 68 50 57 56 30 26 39 33
344 347 343 343 334 248 269 310 318 313 304 295 277 244 208 126 150 222 221 196 211 209 190 225 245 215 182 218 260 272 253 275 10 5 323 320 47 345 11 34 291 65 83 247 264 46 64 33 43 71 320 298 329 93 114 106 98 91 94 98 96 90 83 73 76 93 111 130 142 142 133 125 125 132 116 93 69 56 66 71 62 45 29 27 49 66 58
5 358 341 329 296 294 302 311 316 316 313 313 142 185 255 204 197 198 187 193 234 226 199 208 231 217 194 205 252 271 244 212 336 290 271 284 257 161 84 28 250 88 83 260 270 72 95 109 69 68 251 251 231 206 170 113 101 102 102 98 94 90 86 83 88 98 105 108 110 113 117 125 133 136 137 135 124 96 79 83 86 71 52 47 56 66 64
3 355 326 301 303 305 308 313 316 317 24 82 331 264 222 234 241 217 171 207 242 239 204 194 240 257 219 192 203 247 258 245 179 137 122 295 292 75 78 271 263 75 75 249 244 80 83 85 72 241 240 231 208 190 154 111 103 102 93 90 91 87 82 81 91 103 106 99 94 103 112 115 116 121 135 150 147 129 109 95 86 80 71 58 53 58 68
316 307 297 297 300 301 305 312 313 235 86 57 352 258 246 247 254 244 190 220 238 244 221 201 212 240 232 191 186 222 247 254 63 78 81 279 277 89 100 287 19 69 211 243 208 65 64 76 127 257 249 222 186 166 138 120 116 99 81 80 84 82 79 81 89 105 115 119 122 127 126 120 119 128 135 127 112 102 99 97 96 95 89 80 77 81 84
310 299 290 296 298 289 277 291 292 163 75 79 124 279 286 272 263 257 252 260 277 296 281 270 270 284 290 269 202 252 265 249 80 81 110 251 274 64 64 27 40 161 233 267 55 63 75 138 218 246 241 200 173 158 137 130 125 102 87 87 85 77 77 88 102 112 120 124 126 127 124 120 123 134 135 123 107 93 88 97 112 122 117 115 120 119 113
329 325 227 274 287 250 248 311 336 146 170 186 179 206 246 261 291 319 302 296 316 325 315 319 325 312 299 296 316 300 303 357 52 57 262 275 352 64 70 292 245 230 265 43 59 66 132 210 239 245 210 159 164 161 144 136 127 112 100 88 78 71 63 62 79 98 109 114 113 112 115 118 122 125 124 123 123 114 101 104 114 123 124 130 136 136 141
343 17 76 341 314 305 100 356 315 258 213 206 199 201 216 231 263 286 268 264 294 318 319 323 326 309 292 289 342 317 295 349 24 322 227 45 37 48 195 229 241 50 56 58 56 45 353 270 278 268 157 154 167 165 150 144 137 126 112 88 76 77 74 66 69 81 100 117 116 116 124 133 130 122 122 131 139 134 118 115 126 132 133 135 135 130 135
335 273 71 33 323 298 191 192 277 262 224 211 213 218 228 234 239 248 264 285 314 321 315 314 316 305 291 287 332 317 310 49 32 265 150 83 69 251 235 177 50 48 57 57 36 355 231 248 267 250 172 165 166 158 149 140 127 121 117 109 101 95 90 87 81 77 104 128 123 116 125 138 135 129 128 131 137 144 140 131 138 146 144 140 139 136 135
293 280 157 101 311 288 247 215 224 230 230 229 226 229 241 250 252 258 280 289 288 300 308 310 306 291 277 272 321 308 309 44 20 281 37 86 104 273 351 53 56 80 107 120 199 235 235 246 259 231 177 159 148 143 139 129 126 126 124 125 126 107 87 86 86 81 109 128 118 101 106 120 124 126 125 116 121 143 151 142 140 145 141 141 149 151 143
308 314 172 163 256 247 234 267 311 310 291 269 256 251 258 294 308 296 282 270 278 316 325 324 319 309 304 317 346 279 285 343 315 276 307 87 87 339 20 37 338 300 121 156 191 211 223 235 235 199 158 142 138 139 137 135 138 135 128 131 141 129 105 103 93 77 99 124 126 117 123 129 128 128 126 116 112 126 139 139 139 139 134 137 146 148 142
261 288 263 239 283 279 268 286 319 314 293 273 268 271 292 331 309 289 290 315 329 319 304 282 256 266 289 305 330 298 285 282 240 285 4 56 91 160 108 93 46 353 167 192 199 199 209 218 199 137 123 125 129 136 139 142 144 142 140 150 155 138 119 122 107 70 94 128 138 134 134 135 133 132 131 126 125 132 136 136 134 134 138 144 147 143 139
234 242 239 207 233 283 301 325 338 315 311 318 310 292 300 318 302 292 322 2 336 323 322 319 286 268 282 305 358 331 279 253 191 91 61 176 194 166 114 102 197 205 201 197 185 181 191 190 140 114 121 132 132 134 140 144 146 149 153 152 142 128 122 131 120 85 92 120 134 132 129 131 134 138 144 144 144 143 138 133 133 136 142 148 149 147 145
244 241 251 228 221 252 296 326 318 295 296 305 300 282 270 287 288 279 292 1 352 353 357 354 337 344 341 331 320 281 266 276 41 69 211 229 188 121 118 150 195 196 187 180 168 169 173 162 135 126 130 135 137 141 145 145 146 148 146 141 135 131 128 125 110 95 96 115 127 130 132 135 139 144 146 143 138 132 125 123 130 136 139 145 150 151 152
235 245 276 269 252 244 252 264 270 266 266 275 275 258 221 225 255 265 321 27 21 356 328 303 312 24 333 268 262 304 329 351 16 11 318 314 77 133 155 171 176 167 152 139 139 150 157 157 148 142 142 146 147 142 136 132 134 137 136 131 128 127 127 119 109 103 107 115 119 122 133 143 144 142 138 133 126 120 118 129 138 139 137 141 148 151 153